Weather History for KPWT - April, 2014

Change the Weather History Date:

Saturday, April 19, 2014

  Actual Average Record
Temperature  
Mean Temperature 42 °F -  
Max Temperature 51 °F 55 °F 69 °F (2015)
Min Temperature 33 °F 37 °F 6 °F (2012)
Degree Days  
Heating Degree Days 23    
Moisture  
Dew Point 42 °F    
Average Humidity 97    
Maximum Humidity 100    
Minimum Humidity 87    
Precipitation  
Precipitation 0.40 in - - ()
Sea Level Pressure  
Sea Level Pressure 29.94 in    
Wind  
Wind Speed 5 mph (South)    
Max Wind Speed 28 mph    
Max Gust Speed 38 mph    
Visibility 10 miles    
Events      
Averages and records for this station are not official NWS values.
T = Trace of Precipitation, MM = Missing Value Source: NWS Daily Summary

Daily Weather History Graph

Daily Weather History Graph

Search for Another Location

Airport or City:

Trip Planner

Search our weather history database for the weather conditions in past years. The results will help you decide how hot, cold, wet, or windy it might be!

Date:

Astronomy

Apr. 19, 2014 Rise Set
Actual Time 6:14 AM PDT 8:06 PM PDT
Civil Twilight 5:42 AM PDT 8:39 PM PDT
Nautical Twilight 5:02 AM PDT 9:19 PM PDT
Astronomical Twilight 4:17 AM PDT 10:04 PM PDT
Moon 12:05 AM PDT (4/19) 9:29 AM PDT (4/19)
Length of Visible Light 14h 57m
Length of Day
13h 51m
Waning Gibbous, 77% of the Moon is Illuminated
Apr 19
Waning Gibbous
Apr 22
Last Quarter
Apr 28
New
May 6
First Quarter
May 14
Full

Hourly Weather History & Observations

Time (PDT) Temp. Windchill Dew Point Humidity Pressure Visibility Wind Dir Wind Speed Gust Speed Precip Events Conditions
12:15 AM 37.4 °F - 37.4 °F 100% 29.94 in 10.0 mi Calm Calm - N/A   Clear
12:35 AM 37.4 °F - 35.6 °F 93% 29.92 in 10.0 mi Calm Calm - N/A   Clear
12:55 AM 37.4 °F - 37.4 °F 100% 29.92 in 10.0 mi Calm Calm - N/A   Clear
1:15 AM 35.6 °F - 35.6 °F 100% 29.91 in 6.0 mi Calm Calm - N/A   Clear
1:35 AM 35.6 °F - 35.6 °F 100% 29.90 in 10.0 mi Calm Calm - N/A   Clear
1:55 AM 35.6 °F - 35.6 °F 100% 29.89 in 10.0 mi Calm Calm - N/A   Clear
2:15 AM 35.6 °F - 35.6 °F 100% 29.89 in 7.0 mi Calm Calm - N/A   Clear
2:35 AM 33.8 °F - 33.8 °F 100% 29.88 in 8.0 mi Calm Calm - N/A   Clear
2:55 AM 35.6 °F - 35.6 °F 100% 29.87 in 10.0 mi Calm Calm - N/A   Clear
3:15 AM 35.6 °F - 35.6 °F 100% 29.86 in - Calm Calm - N/A   Unknown
3:35 AM 35.6 °F - 33.8 °F 93% 29.84 in 10.0 mi Calm Calm - N/A   Partly Cloudy
3:55 AM 37.4 °F - 37.4 °F 100% 29.85 in 10.0 mi Calm Calm - N/A   Partly Cloudy
4:15 AM 37.4 °F - 37.4 °F 100% 29.83 in 10.0 mi Calm Calm - N/A   Clear
4:35 AM 37.4 °F - 35.6 °F 93% 29.85 in 10.0 mi Calm Calm - N/A   Partly Cloudy
4:55 AM 37.4 °F 34.9 °F 35.6 °F 93% 29.83 in 10.0 mi East 3.5 mph - N/A   Clear
5:15 AM 37.4 °F - 37.4 °F 100% 29.84 in 10.0 mi Calm Calm - N/A   Clear
5:35 AM 37.4 °F - 37.4 °F 100% 29.82 in 10.0 mi Calm Calm - N/A   Partly Cloudy
5:55 AM 39.2 °F - 39.2 °F 100% 29.83 in 10.0 mi Calm Calm - N/A   Mostly Cloudy
6:15 AM 39.2 °F 37.0 °F 37.4 °F 93% 29.82 in 10.0 mi South 3.5 mph - N/A   Partly Cloudy
6:35 AM 39.2 °F - 39.2 °F 100% 29.83 in 10.0 mi Calm Calm - N/A   Scattered Clouds
6:55 AM 41.0 °F - 41.0 °F 100% 29.83 in 10.0 mi Calm Calm - N/A   Partly Cloudy
7:15 AM 42.8 °F - 41.0 °F 93% 29.83 in 10.0 mi Calm Calm - N/A   Clear
7:35 AM 42.8 °F 41.1 °F 42.8 °F 100% 29.84 in 10.0 mi SW 3.5 mph - N/A   Mostly Cloudy
7:55 AM 42.8 °F - 39.2 °F 87% 29.83 in 10.0 mi Calm Calm - N/A   Mostly Cloudy
8:15 AM 44.6 °F - 42.8 °F 93% 29.82 in 10.0 mi Calm Calm - N/A   Clear
8:35 AM 44.6 °F - 42.8 °F 93% 29.81 in 10.0 mi Calm Calm - N/A   Clear
8:55 AM 46.4 °F 45.2 °F 42.8 °F 87% 29.81 in 10.0 mi SW 3.5 mph - N/A   Partly Cloudy
9:15 AM 46.4 °F 42.9 °F 44.6 °F 93% 29.81 in 10.0 mi SSW 6.9 mph - N/A   Scattered Clouds
9:35 AM 48.2 °F - 44.6 °F 87% 29.82 in 10.0 mi SW 6.9 mph - N/A   Partly Cloudy
9:55 AM 46.4 °F 41.9 °F 44.6 °F 93% 29.84 in 10.0 mi SSW 9.2 mph - N/A   Scattered Clouds
10:15 AM 46.4 °F 40.1 °F 44.6 °F 93% 29.85 in 8.0 mi SW 15.0 mph - N/A   Mostly Cloudy
10:35 AM 46.4 °F 41.5 °F 44.6 °F 93% 29.87 in 10.0 mi SW 10.4 mph - 0.03 in   Overcast
10:55 AM 44.6 °F 38.1 °F 44.6 °F 100% 29.89 in 10.0 mi SSW 13.8 mph - 0.08 in   Overcast
11:15 AM 44.6 °F 40.2 °F 44.6 °F 100% 29.86 in 10.0 mi SSE 8.1 mph - 0.06 in   Overcast
11:35 AM 44.6 °F 40.7 °F 44.6 °F 100% 29.88 in 10.0 mi South 6.9 mph - 0.08 in   Mostly Cloudy
11:55 AM 44.6 °F 39.7 °F 44.6 °F 100% 29.89 in 10.0 mi South 9.2 mph - 0.10 in   Mostly Cloudy
12:15 PM 44.6 °F 38.8 °F 44.6 °F 100% 29.89 in 10.0 mi South 11.5 mph - 0.02 in   Overcast
12:35 PM 44.6 °F 41.4 °F 44.6 °F 100% 29.89 in 9.0 mi South 5.8 mph - 0.03 in   Overcast
12:55 PM 44.6 °F 40.2 °F 44.6 °F 100% 29.89 in 10.0 mi South 8.1 mph - 0.04 in   Overcast
1:15 PM 46.4 °F 41.1 °F 46.4 °F 100% 29.92 in 6.0 mi South 11.5 mph - 0.02 in   Overcast
1:35 PM 44.6 °F 39.7 °F 44.6 °F 100% 29.92 in 7.0 mi South 9.2 mph - 0.04 in   Overcast
1:55 PM 44.6 °F 39.7 °F 44.6 °F 100% 29.92 in 10.0 mi South 9.2 mph - 0.04 in   Overcast
2:15 PM 44.6 °F 39.7 °F 44.6 °F 100% 29.92 in 9.0 mi SSE 9.2 mph - 0.01 in   Overcast
2:35 PM 46.4 °F 41.9 °F 46.4 °F 100% 29.91 in 10.0 mi SSE 9.2 mph - 0.01 in   Overcast
2:55 PM 46.4 °F 41.9 °F 46.4 °F 100% 29.93 in 10.0 mi South 9.2 mph - 0.02 in   Overcast
3:15 PM 48.2 °F - 48.2 °F 100% 29.94 in 9.0 mi South 11.5 mph - N/A   Overcast
3:35 PM 48.2 °F - 48.2 °F 100% 29.93 in 10.0 mi South 10.4 mph 16.1 mph 0.01 in   Overcast
3:55 PM 48.2 °F - 48.2 °F 100% 29.95 in 8.0 mi SW 8.1 mph - 0.11 in   Overcast
4:15 PM 48.2 °F - 48.2 °F 100% 29.96 in 10.0 mi South 10.4 mph - N/A   Mostly Cloudy
4:35 PM 50.0 °F - 50.0 °F 100% 29.97 in 10.0 mi SSW 13.8 mph 20.7 mph 0.01 in   Overcast
4:55 PM 51.8 °F - 50.0 °F 94% 29.97 in 10.0 mi SSW 23.0 mph 28.8 mph 0.01 in   Mostly Cloudy
5:15 PM 50.0 °F - 48.2 °F 94% 29.98 in 10.0 mi SSW 21.9 mph 38.0 mph N/A   Mostly Cloudy
5:35 PM 48.2 °F - 48.2 °F 100% 29.98 in 10.0 mi SSW 19.6 mph 25.3 mph N/A   Scattered Clouds
5:55 PM 50.0 °F - 48.2 °F 94% 30.00 in 10.0 mi SSW 23.0 mph 28.8 mph N/A   Scattered Clouds
6:15 PM 50.0 °F - 48.2 °F 94% 30.02 in 10.0 mi SSW 27.6 mph 38.0 mph N/A   Mostly Cloudy
6:35 PM 48.2 °F - 48.2 °F 100% 30.03 in 10.0 mi SSW 20.7 mph 28.8 mph N/A   Mostly Cloudy
6:55 PM 48.2 °F - 46.4 °F 93% 30.03 in 10.0 mi South 16.1 mph 23.0 mph N/A   Partly Cloudy
7:15 PM 48.2 °F - 44.6 °F 87% 30.04 in 10.0 mi South 20.7 mph 25.3 mph N/A   Clear
7:35 PM 46.4 °F 38.7 °F 44.6 °F 93% 30.06 in 10.0 mi South 20.7 mph 25.3 mph N/A   Clear
7:55 PM 46.4 °F 39.8 °F 44.6 °F 93% 30.08 in 10.0 mi South 16.1 mph 27.6 mph N/A   Clear
8:15 PM 46.4 °F 39.0 °F 44.6 °F 93% 30.08 in 10.0 mi SSW 19.6 mph 26.5 mph N/A   Scattered Clouds
8:35 PM 44.6 °F 37.2 °F 42.8 °F 93% 30.10 in 10.0 mi South 17.3 mph 25.3 mph N/A   Partly Cloudy
8:55 PM 44.6 °F 37.2 °F 44.6 °F 100% 30.12 in 10.0 mi South 17.3 mph - N/A   Clear
9:15 PM 44.6 °F 37.8 °F 42.8 °F 93% 30.12 in 10.0 mi South 15.0 mph 21.9 mph N/A   Clear
9:35 PM 44.6 °F 37.4 °F 44.6 °F 100% 30.14 in 10.0 mi South 16.1 mph - N/A   Partly Cloudy
9:55 PM 44.6 °F 37.4 °F 44.6 °F 100% 30.14 in 10.0 mi South 16.1 mph - N/A   Scattered Clouds
10:15 PM 44.6 °F 37.8 °F 42.8 °F 93% 30.16 in 10.0 mi South 15.0 mph - N/A   Mostly Cloudy
10:35 PM 42.8 °F 36.2 °F 41.0 °F 93% 30.16 in 10.0 mi South 12.7 mph - N/A   Partly Cloudy
10:55 PM 42.8 °F 37.5 °F 42.8 °F 100% 30.18 in 10.0 mi South 9.2 mph - N/A   Clear
11:15 PM 42.8 °F 36.6 °F 42.8 °F 100% 30.17 in 10.0 mi South 11.5 mph 17.3 mph N/A   Clear
11:35 PM 42.8 °F 36.6 °F 41.0 °F 93% 30.20 in 10.0 mi South 11.5 mph 19.6 mph N/A   Clear
11:55 PM 42.8 °F 35.1 °F 41.0 °F 93% 30.20 in 10.0 mi South 16.1 mph 20.7 mph N/A   Clear